When you browse on this site, cookies collect data to enhance your experience and personalize the content and advertising you see.
Visit our Privacy Policy to learn more. By continuing to use the site, you agree to this use of cookies and data.
  • In Czech Republic
  • List of Countries
  • For 7 days
  • Water Temperature
  • Satellite Maps
  • Weather Map
  • Weather Widgets
  • user-avatar
    Login

    Hourly Weather Srednia

    Today, 19 February, Tuesday

    Time Temperature Precipitation Wind Pressure Humidity
    00:00 +3°C° 0 mm 2 mps 738 mmHg 86%
    01:00 +2°C° 0 mm 2 mps 738 mmHg 86%
    02:00 +2°C° 0 mm 2 mps 738 mmHg 86%
    03:00 +2°C° 0 mm 2 mps 737 mmHg 86%
    04:00 +2°C° 0 mm 2 mps 737 mmHg 86%
    05:00 +2°C° 0 mm 2 mps 737 mmHg 86%
    06:00 +1°C° 0 mm 2 mps 737 mmHg 86%
    07:00 +1°C° 0 mm 2 mps 736 mmHg 86%
    08:00 +1°C° 0 mm 2 mps 736 mmHg 86%
    09:00 +2°C° 0 mm 3 mps 736 mmHg 79%
    10:00 +4°C° 0 mm 3 mps 736 mmHg 72%
    11:00 +6°C° 0 mm 4 mps 736 mmHg 65%
    12:00 +7°C° 0 mm 4 mps 736 mmHg 61%
    13:00 +8°C° 0 mm 5 mps 735 mmHg 58%
    14:00 +9°C° 0 mm 5 mps 735 mmHg 55%
    15:00 +8°C° 0 mm 5 mps 735 mmHg 58%
    16:00 +8°C° 0 mm 4 mps 735 mmHg 61%
    17:00 +7°C° 0 mm 4 mps 734 mmHg 64%
    18:00 +6°C° 0 mm 5 mps 734 mmHg 68%
    19:00 +5°C° 0 mm 5 mps 734 mmHg 71%
    20:00 +3°C° 0 mm 5 mps 734 mmHg 75%
    21:00 +3°C° 0 mm 5 mps 734 mmHg 76%
    22:00 +3°C° 0 mm 5 mps 734 mmHg 77%
    23:00 +3°C° 0 mm 5 mps 734 mmHg 78%

    Tomorrow, 20 February, Wednesday

    Time Temperature Precipitation Wind Pressure Humidity
    00:00 +3°C° 0 mm 4 mps 734 mmHg 79%
    01:00 +3°C° 0 mm 4 mps 734 mmHg 80%
    02:00 +3°C° 0 mm 4 mps 734 mmHg 81%
    03:00 +3°C° 0.3 mm 4 mps 734 mmHg 82%
    04:00 +2°C° 0.3 mm 5 mps 734 mmHg 84%
    05:00 +2°C° 0.3 mm 5 mps 734 mmHg 85%
    06:00 +2°C° 0 mm 5 mps 734 mmHg 87%
    07:00 +1°C° 0 mm 5 mps 734 mmHg 90%
    08:00 +1°C° 0 mm 4 mps 734 mmHg 92%
    09:00 +2°C° 0 mm 5 mps 735 mmHg 88%
    10:00 +2°C° 0 mm 5 mps 735 mmHg 84%
    11:00 +3°C° 0 mm 6 mps 735 mmHg 80%
    12:00 +3°C° 0.1 mm 6 mps 736 mmHg 78%
    13:00 +3°C° 0.1 mm 6 mps 736 mmHg 75%
    14:00 +3°C° 0.1 mm 6 mps 736 mmHg 73%
    15:00 +3°C° 0.1 mm 6 mps 736 mmHg 71%
    16:00 +3°C° 0.1 mm 5 mps 736 mmHg 69%
    17:00 +3°C° 0.1 mm 5 mps 736 mmHg 68%
    18:00 +4°C° 0.1 mm 4 mps 737 mmHg 70%
    19:00 +4°C° 0.1 mm 4 mps 737 mmHg 73%
    20:00 +3°C° 0.1 mm 4 mps 737 mmHg 76%
    21:00 +3°C° 0.1 mm 4 mps 738 mmHg 77%
    22:00 +3°C° 0.1 mm 4 mps 738 mmHg 77%
    23:00 +3°C° 0.1 mm 4 mps 738 mmHg 78%

    Day after tomorrow, 21 February, Thursday

    Time Temperature Precipitation Wind Pressure Humidity
    00:00 +3°C° 0 mm 4 mps 738 mmHg 79%
    01:00 +3°C° 0 mm 4 mps 738 mmHg 79%
    02:00 +3°C° 0 mm 4 mps 739 mmHg 80%
    03:00 +3°C° 0 mm 4 mps 739 mmHg 80%
    04:00 +3°C° 0 mm 4 mps 738 mmHg 80%
    05:00 +3°C° 0 mm 4 mps 738 mmHg 80%
    06:00 +3°C° 0 mm 4 mps 739 mmHg 81%
    07:00 +2°C° 0 mm 5 mps 739 mmHg 82%
    08:00 +2°C° 0 mm 5 mps 739 mmHg 83%
    09:00 +2°C° 0.1 mm 5 mps 739 mmHg 80%
    10:00 +3°C° 0.1 mm 5 mps 739 mmHg 78%
    11:00 +4°C° 0.1 mm 6 mps 739 mmHg 76%
    12:00 +4°C° 0.1 mm 6 mps 738 mmHg 74%
    13:00 +4°C° 0.1 mm 6 mps 738 mmHg 72%
    14:00 +5°C° 0.1 mm 6 mps 738 mmHg 70%
    15:00 +5°C° 0.2 mm 5 mps 738 mmHg 73%
    16:00 +5°C° 0.2 mm 5 mps 737 mmHg 76%
    17:00 +3°C° 0.2 mm 5 mps 737 mmHg 78%
    18:00 +3°C° 0.5 mm 5 mps 737 mmHg 81%
    19:00 +3°C° 0.5 mm 5 mps 737 mmHg 84%
    20:00 +3°C° 0.5 mm 5 mps 737 mmHg 86%
    21:00 +3°C° 0.8 mm 5 mps 737 mmHg 87%
    22:00 +3°C° 0.8 mm 5 mps 736 mmHg 88%
    23:00 +3°C° 0.8 mm 5 mps 736 mmHg 89%

    22 February, Friday

    Time Temperature Precipitation Wind Pressure Humidity
    00:00 +3°C° 0.8 mm 5 mps 736 mmHg 90%
    01:00 +3°C° 0.8 mm 5 mps 736 mmHg 91%
    02:00 +3°C° 0.8 mm 5 mps 736 mmHg 92%
    03:00 +3°C° 0.4 mm 5 mps 736 mmHg 93%
    04:00 +4°C° 0.4 mm 4 mps 736 mmHg 93%
    05:00 +3°C° 0.4 mm 4 mps 736 mmHg 94%
    06:00 +2°C° 0.5 mm 5 mps 737 mmHg 93%
    07:00 +1°C° 0.5 mm 5 mps 737 mmHg 92%
    08:00 -1°C° 0.5 mm 6 mps 738 mmHg 90%
    09:00 -2°C° 0.4 mm 6 mps 739 mmHg 87%
    10:00 -3°C° 0.4 mm 6 mps 740 mmHg 84%
    11:00 -4°C° 0.4 mm 6 mps 741 mmHg 80%
    12:00 -4°C° 0.1 mm 6 mps 741 mmHg 75%
    13:00 -4°C° 0.1 mm 6 mps 742 mmHg 70%
    14:00 -4°C° 0.1 mm 6 mps 743 mmHg 64%
    15:00 -4°C° 0 mm 6 mps 744 mmHg 64%
    16:00 -5°C° 0 mm 6 mps 745 mmHg 63%
    17:00 -5°C° 0 mm 6 mps 745 mmHg 62%
    18:00 -6°C° 0 mm 6 mps 746 mmHg 62%
    19:00 -6°C° 0 mm 5 mps 747 mmHg 62%
    20:00 -7°C° 0 mm 5 mps 748 mmHg 62%
    21:00 -7°C° 0 mm 4 mps 748 mmHg 60%
    22:00 -8°C° 0 mm 4 mps 749 mmHg 58%
    23:00 -8°C° 0 mm 4 mps 749 mmHg 56%

    23 February, Saturday

    Time Temperature Precipitation Wind Pressure Humidity
    00:00 -8°C° 0 mm 4 mps 750 mmHg 55%
    01:00 -7°C° 0 mm 3 mps 750 mmHg 54%
    02:00 -7°C° 0 mm 3 mps 750 mmHg 52%
    03:00 -7°C° 0 mm 3 mps 750 mmHg 52%
    04:00 -7°C° 0 mm 3 mps 750 mmHg 52%
    05:00 -7°C° 0 mm 3 mps 750 mmHg 51%
    06:00 -7°C° 0 mm 3 mps 750 mmHg 51%
    07:00 -7°C° 0 mm 3 mps 750 mmHg 51%
    08:00 -6°C° 0 mm 3 mps 751 mmHg 50%
    09:00 -6°C° 0 mm 3 mps 751 mmHg 46%
    10:00 -5°C° 0 mm 3 mps 751 mmHg 43%
    11:00 -4°C° 0 mm 4 mps 751 mmHg 39%
    12:00 -3°C° 0 mm 4 mps 750 mmHg 37%
    13:00 -3°C° 0 mm 4 mps 750 mmHg 34%
    14:00 -2°C° 0 mm 4 mps 750 mmHg 32%
    15:00 -2°C° 0 mm 4 mps 749 mmHg 34%
    16:00 -2°C° 0 mm 4 mps 749 mmHg 36%
    17:00 -2°C° 0 mm 3 mps 748 mmHg 37%
    18:00 -2°C° 0 mm 3 mps 748 mmHg 40%
    19:00 -2°C° 0 mm 2 mps 749 mmHg 43%
    20:00 -3°C° 0 mm 2 mps 749 mmHg 47%
    21:00 -3°C° 0 mm 2 mps 748 mmHg 51%
    22:00 -3°C° 0 mm 2 mps 748 mmHg 56%
    23:00 -3°C° 0 mm 2 mps 748 mmHg 60%

    24 February, Sunday

    Time Temperature Precipitation Wind Pressure Humidity
    00:00 -3°C° 0 mm 2 mps 748 mmHg 62%
    01:00 -3°C° 0 mm 2 mps 748 mmHg 64%
    02:00 -3°C° 0 mm 2 mps 748 mmHg 66%
    03:00 -3°C° 0 mm 2 mps 747 mmHg 65%
    04:00 -3°C° 0 mm 2 mps 747 mmHg 64%
    05:00 -3°C° 0 mm 2 mps 747 mmHg 63%
    06:00 -3°C° 0 mm 2 mps 747 mmHg 66%
    07:00 -3°C° 0 mm 2 mps 747 mmHg 70%
    08:00 -1°C° 0 mm 1 mps 748 mmHg 73%
    09:00 -1°C° 0 mm 1 mps 748 mmHg 73%
    10:00 -2°C° 0 mm 2 mps 748 mmHg 73%
    11:00 -2°C° 0 mm 2 mps 748 mmHg 72%
    12:00 -1°C° 0 mm 2 mps 748 mmHg 72%
    13:00 -1°C° 0 mm 2 mps 748 mmHg 71%
    14:00 +1°C° 0 mm 2 mps 748 mmHg 71%
    15:00 +1°C° 0 mm 2 mps 747 mmHg 73%
    16:00 +1°C° 0 mm 2 mps 747 mmHg 75%
    17:00 +2°C° 0 mm 1 mps 747 mmHg 77%
    18:00 +1°C° 0 mm 1 mps 747 mmHg 80%
    19:00 +1°C° 0 mm 1 mps 747 mmHg 84%
    20:00 0°C° 0 mm 1 mps 747 mmHg 87%
    21:00 0°C° 0 mm 1 mps 747 mmHg 88%
    22:00 -1°C° 0 mm 0 mps 746 mmHg 89%
    23:00 -1°C° 0 mm 0 mps 746 mmHg 90%
    Show more